Cozumel, Mexico

12:25 PM EST on September 02, 2015 (GMT -0500)
Cozumel International | | Change Station
CLOSE
Current Station
Airport
Location: Cozumel,
Elevation: 16 ft
Nearby Weather Stations

Elev 16 ft 20.52 °N, 86.93 °W | Updated 36 minutes ago

Scattered Clouds
Scattered Clouds
86 °F
Feels Like 97 °F
N
13
Wind Variable Wind from ESE

Today
High -- | Low -- °F
--% Chance of Precip.
Yesterday
High -- | Low -- °F
Precip. -- in
6:31 AM 7:02 PM
Waning Gibbous, 78% visible
Pressure 30.03 in
Visibility 8.0 miles
Clouds Scattered Clouds 1500 ft
Heat Index 97 °F
Dew Point 77 °F
Humidity 74%
Rainfall 0.00 in
Snow Depth Not available.
UV 13 out of 12
Pollen Not available.
Air Quality Not available.
Flu Activity Not available.
METAR MMCZ 021649Z 11011KT 8SM SCT015TCU 30/25 A3003 RMK 8/200 SC
Pressure 30.03 in
Visibility 8.0 miles
Clouds Scattered Clouds 1500 ft
Heat Index 97 °F
Dew Point 77 °F
Humidity 74%
Rainfall 0.00 in
Snow Depth Not available.
UV 13 out of 12
Pollen Not available.
Air Quality Not available.
Flu Activity Not available.
METAR MMCZ 021649Z 11011KT 8SM SCT015TCU 30/25 A3003 RMK 8/200 SC

10-Day Weather Forecast

×

Almanac

Astronomy

Sep. 02, 2015 Rise Set
Actual Time
Civil Twilight
Nautical Twilight
Astronomical Twilight
Moon
Length of Visible Light
Length of Day
Tomorrow will be .
, % of the Moon is Illuminated

Today's Extremes

Country Highs Country Lows

Community

WunderPhotos

Upload Photos

1,851,785 photos uploaded!

WunderBlogs® & News

Nearby

Air Quality

  Air Quality AQ Index Pollutant
Not available.

Snow Depth

Station Depth Elevation

Earthquake Activity

City Distance Mag. Time & Date
Minimum magnitude displayed is 2.5.

Coastal Water Temperatures

Place Temperature

Stations

Nearby Weather Stations

Station Location Temp. Windchill Dew Point Humidity Wind Precip. Elev Updated Type